TimeEST,TemperatureF,Dew PointF,Humidity,Sea Level PressureIn,VisibilityMPH,Wind Direction,Wind SpeedMPH,Gust SpeedMPH,PrecipitationIn,Events,Conditions,WindDirDegrees,DateUTC
12:15 AM,35.6,32.0,87,30.06,10.0,Calm,Calm,-,N/A,,Clear,0,2013-02-15 05:15:00
12:35 AM,33.8,32.0,93,30.06,10.0,Calm,Calm,-,N/A,,Clear,0,2013-02-15 05:35:00
12:55 AM,33.8,32.0,93,30.05,10.0,Calm,Calm,-,N/A,,Clear,0,2013-02-15 05:55:00
1:35 AM,33.8,30.2,87,30.05,10.0,Calm,Calm,-,N/A,,Clear,0,2013-02-15 06:35:00
1:55 AM,33.8,30.2,87,30.06,10.0,Calm,Calm,-,N/A,,Clear,0,2013-02-15 06:55:00
2:15 AM,33.8,32.0,93,30.06,10.0,Calm,Calm,-,N/A,,Clear,0,2013-02-15 07:15:00
2:35 AM,32.0,30.2,93,30.06,10.0,Calm,Calm,-,N/A,,Clear,0,2013-02-15 07:35:00
2:55 AM,33.8,30.2,87,30.05,10.0,Calm,Calm,-,N/A,,Clear,0,2013-02-15 07:55:00
3:15 AM,32.0,30.2,93,30.05,10.0,Calm,Calm,-,N/A,,Clear,0,2013-02-15 08:15:00
3:35 AM,32.0,30.2,93,30.06,10.0,Calm,Calm,-,N/A,,Clear,0,2013-02-15 08:35:00
3:55 AM,32.0,30.2,93,30.06,10.0,Calm,Calm,-,N/A,,Clear,0,2013-02-15 08:55:00
4:15 AM,32.0,30.2,93,30.05,10.0,Calm,Calm,-,N/A,,Clear,0,2013-02-15 09:15:00
4:35 AM,33.8,30.2,87,30.04,10.0,Calm,Calm,-,N/A,,Clear,0,2013-02-15 09:35:00
5:15 AM,33.8,30.2,87,30.06,10.0,SSE,3.5,-,N/A,,Clear,160,2013-02-15 10:15:00
5:35 AM,30.2,30.2,100,30.07,10.0,Calm,Calm,-,N/A,,Clear,0,2013-02-15 10:35:00
5:55 AM,30.2,28.4,93,30.07,10.0,Calm,Calm,-,N/A,,Clear,0,2013-02-15 10:55:00
6:15 AM,30.2,28.4,93,30.07,10.0,Calm,Calm,-,N/A,,Clear,0,2013-02-15 11:15:00
6:35 AM,30.2,28.4,93,30.08,10.0,Calm,Calm,-,N/A,,Clear,0,2013-02-15 11:35:00
6:55 AM,30.2,30.2,100,30.09,10.0,Calm,Calm,-,N/A,,Clear,0,2013-02-15 11:55:00
7:15 AM,32.0,30.2,93,30.08,10.0,Calm,Calm,-,N/A,,Clear,0,2013-02-15 12:15:00
7:35 AM,33.8,30.2,87,30.07,10.0,Calm,Calm,-,N/A,,Clear,0,2013-02-15 12:35:00
7:55 AM,32.0,30.2,93,30.07,10.0,SSE,3.5,-,N/A,,Clear,150,2013-02-15 12:55:00
8:15 AM,35.6,33.8,93,30.09,10.0,Calm,Calm,-,N/A,,Clear,0,2013-02-15 13:15:00
8:35 AM,37.4,35.6,93,30.09,10.0,Calm,Calm,-,N/A,,Clear,0,2013-02-15 13:35:00
8:55 AM,41.0,35.6,81,30.10,10.0,Calm,Calm,-,N/A,,Clear,0,2013-02-15 13:55:00
9:15 AM,42.8,37.4,81,30.10,10.0,Calm,Calm,-,N/A,,Clear,0,2013-02-15 14:15:00
9:35 AM,46.4,37.4,71,30.10,10.0,West,4.6,-,N/A,,Partly Cloudy,270,2013-02-15 14:35:00
9:55 AM,48.2,39.2,71,30.10,10.0,WSW,8.1,-,N/A,,Scattered Clouds,240,2013-02-15 14:55:00
10:15 AM,48.2,37.4,66,30.11,10.0,WSW,6.9,-,N/A,,Mostly Cloudy,250,2013-02-15 15:15:00
10:35 AM,48.2,39.2,71,30.11,10.0,WNW,8.1,-,N/A,,Mostly Cloudy,290,2013-02-15 15:35:00
10:55 AM,48.2,39.2,71,30.11,10.0,West,5.8,-,N/A,,Partly Cloudy,280,2013-02-15 15:55:00
11:15 AM,50.0,39.2,66,30.11,10.0,West,6.9,-,N/A,,Scattered Clouds,280,2013-02-15 16:15:00
11:35 AM,48.2,39.2,71,30.12,10.0,NW,6.9,-,N/A,,Scattered Clouds,320,2013-02-15 16:35:00
11:55 AM,50.0,39.2,66,30.11,10.0,WNW,6.9,-,N/A,,Partly Cloudy,300,2013-02-15 16:55:00
12:15 PM,51.8,39.2,62,30.10,10.0,West,8.1,-,N/A,,Scattered Clouds,270,2013-02-15 17:15:00
12:55 PM,51.8,37.4,58,30.09,10.0,Variable,5.8,-,N/A,,Mostly Cloudy,0,2013-02-15 17:55:00
1:15 PM,53.6,35.6,51,30.08,10.0,West,9.2,-,N/A,,Mostly Cloudy,270,2013-02-15 18:15:00
1:35 PM,53.6,35.6,51,30.08,10.0,WNW,8.1,-,N/A,,Mostly Cloudy,290,2013-02-15 18:35:00
1:55 PM,50.0,33.8,54,30.07,10.0,NW,8.1,-,N/A,,Mostly Cloudy,320,2013-02-15 18:55:00
2:15 PM,50.0,35.6,58,30.07,10.0,NNW,11.5,-,N/A,,Overcast,330,2013-02-15 19:15:00
2:35 PM,48.2,35.6,62,30.07,10.0,NNW,11.5,-,N/A,,Overcast,340,2013-02-15 19:35:00
2:55 PM,46.4,35.6,66,30.07,10.0,North,8.1,-,N/A,,Overcast,350,2013-02-15 19:55:00
3:15 PM,46.4,33.8,62,30.07,10.0,NW,8.1,-,N/A,,Overcast,320,2013-02-15 20:15:00
3:35 PM,46.4,33.8,62,30.07,10.0,NNW,6.9,-,N/A,,Overcast,340,2013-02-15 20:35:00
3:55 PM,46.4,35.6,66,30.07,10.0,North,5.8,-,N/A,,Overcast,350,2013-02-15 20:55:00
4:15 PM,46.4,33.8,62,30.08,10.0,NNW,4.6,-,N/A,,Overcast,330,2013-02-15 21:15:00
4:35 PM,46.4,33.8,62,30.08,10.0,Variable,6.9,-,N/A,,Overcast,0,2013-02-15 21:35:00
4:55 PM,46.4,33.8,62,30.08,10.0,NNW,6.9,-,N/A,,Overcast,340,2013-02-15 21:55:00
5:15 PM,46.4,33.8,62,30.09,10.0,North,10.4,-,N/A,,Overcast,350,2013-02-15 22:15:00
5:35 PM,44.6,33.8,66,30.09,10.0,NNW,8.1,-,N/A,,Overcast,340,2013-02-15 22:35:00
5:55 PM,44.6,33.8,66,30.10,10.0,North,6.9,-,N/A,,Overcast,360,2013-02-15 22:55:00
6:15 PM,44.6,33.8,66,30.10,10.0,North,5.8,-,N/A,,Overcast,350,2013-02-15 23:15:00
6:35 PM,42.8,32.0,66,30.10,10.0,North,5.8,-,N/A,,Overcast,360,2013-02-15 23:35:00
6:55 PM,42.8,32.0,66,30.10,10.0,North,5.8,-,N/A,,Mostly Cloudy,10,2013-02-15 23:55:00
7:15 PM,39.2,30.2,70,30.10,10.0,North,3.5,-,N/A,,Partly Cloudy,10,2013-02-16 00:15:00
7:35 PM,39.2,30.2,70,30.10,10.0,North,3.5,-,N/A,,Clear,360,2013-02-16 00:35:00
7:55 PM,39.2,30.2,70,30.10,10.0,Calm,Calm,-,N/A,,Clear,0,2013-02-16 00:55:00
8:15 PM,35.6,30.2,81,30.10,10.0,Calm,Calm,-,N/A,,Clear,0,2013-02-16 01:15:00
8:35 PM,35.6,28.4,75,30.10,10.0,Calm,Calm,-,N/A,,Clear,0,2013-02-16 01:35:00
8:55 PM,37.4,28.4,70,30.10,10.0,North,6.9,-,N/A,,Scattered Clouds,350,2013-02-16 01:55:00
9:15 PM,39.2,28.4,65,30.11,10.0,North,9.2,-,N/A,,Partly Cloudy,360,2013-02-16 02:15:00
9:35 PM,37.4,28.4,70,30.11,10.0,North,6.9,-,N/A,,Clear,350,2013-02-16 02:35:00
9:55 PM,37.4,28.4,70,30.11,10.0,North,5.8,-,N/A,,Clear,360,2013-02-16 02:55:00
10:15 PM,37.4,28.4,70,30.12,10.0,North,6.9,-,N/A,,Partly Cloudy,360,2013-02-16 03:15:00
10:35 PM,37.4,28.4,70,30.12,10.0,North,11.5,-,N/A,,Mostly Cloudy,360,2013-02-16 03:35:00
10:55 PM,37.4,28.4,70,30.12,10.0,North,9.2,-,N/A,,Mostly Cloudy,350,2013-02-16 03:55:00
11:15 PM,37.4,26.6,65,30.12,10.0,North,8.1,-,N/A,,Mostly Cloudy,350,2013-02-16 04:15:00
11:35 PM,37.4,26.6,65,30.12,10.0,North,8.1,-,N/A,,Overcast,350,2013-02-16 04:35:00
11:55 PM,35.6,26.6,70,30.11,10.0,North,8.1,-,N/A,,Overcast,350,2013-02-16 04:55:00